Showing default

HULIANWANG DIGUI-54, 65111

Orbit data source: Space-Track

HULIANWANG DIGUI-54, 65111 is a payload satellite owned by Zhongguo Xingwang (CN) in LEO that was launched on Mon, 04 Aug 2025 UTC via a CHANG ZHENG 12 launch vehicle from the Wenchang Satellite Launch Center (WSC). Payload-class satellites include a variety of spacecraft equipped with specific instruments for various scientific and technological missions. These include communications satellites like Starlink; space stations such as the ISS; scientific satellites like the Hubble; Earth observation satellites from companies like Planet Labs, Umbra, and HawkEye 360; GPS; miniature CubeSats for education and research; and military/defense satellites.

Loading next visibility...
Identifier
65111, 2025-168F
Orbit
LEO
Country
Flag of CNCN / PRC
Related business
Manufacturer
YINNT
Mission
Operational Civil Communications
Bus & Motor
XINGWANG Y, Unknown motor
Mass
~800 kg wet, ~800 kg dry
Launch date (UTC)
2025-08-04 (11 months ago)
Launch vehicle
CHANG ZHENG 12
Launch site
Wenchang Satellite Launch Center (WSC)
Object type
Payload
Rocket body
Debris
Shape & HBR
Box + 2 Pan, 2.1 m
Radar Cross Section
5.935 m², Large (>1 m²)

Expand to show TLE details & history
Last TLE update: 14 hours ago

TLE from 14 hours ago
0 HULIANWANG DIGUI-54
1 65111U 25168F   26171.41082654 -.00000087  00000-0  79395-4 0  9996
2 65111  50.0002 313.7837 0011016 108.4814 251.7256 13.29324373 43125
Epoch: 2026-06-20T09:51Z
TLE epoch observation values (Epoch: 2026-06-20T09:51:35.413Z)
Latitude
-0.00001°
Longitude
-102.73971°
Altitude
1,152.427 km
Speed
7.277 km/s
True Right ascension
20h 55m 08s
True Declination
0° 00' 00"
Sunlit
Object was in full shadow at epoch
Visualization orbit readout
Latitude
Unknown
Longitude
Unknown
Altitude
Unknown
Speed
Unknown
Apparent Right ascension
Unknown
Apparent Declination
Unknown
Sunlit
N/A
Visualization observer readout
Local Sidereal Time
10:18:26
Azimuth
Unknown
Elevation
Unknown
Doppler factor
Unknown
Orbital elements
Apogee altitude
1,158.311 km
Perigee altitude
1,141.725 km
Semi-major axis
7,528.155 km
Eccentricity
0.0011
Inclination
50.0002°
RAAN
313.7837°
Arg. of periapsis
108.4814°
True anomaly
251.60578°
Mean anomaly
251.7256°
Eccentric anomaly
251.66569°
Mean motion
3.32285 °/min
Orbital period
108.34 mins
BSTAR
0.000079395
Loading maneuver chart data...
Computing Atmospheric mass density...
Loading historical data...
Loading historical data...
Loading historical data...
Loading historical data...
Loading historical data...
Loading historical data...
Loading historical data...

Documentation

Showing up to 5 results
|